Location: Olsztyn
(53.7767°N, 20.4765°E)
Time: 20:07:13
(UTC+02:00)

BlueWalker 3 - Visible Passes

Search period start: 29 May 2024 00:00
Search period end: 08 June 2024 00:00
Orbit: 481 x 494 km, 53.2° (Epoch: 28 May)

Date Brightness Start Highest point End Pass type
(mag) Time Alt. Az. Time Alt. Az. Time Alt. Az.
04 Jun 4.2 03:02:01 10° SSE 03:03:52 13° SE 03:05:44 10° ESE visible
05 Jun 4.2 02:36:47 10° SSE 02:38:28 13° SE 02:40:09 10° ESE visible
06 Jun 4.1 02:11:34 10° SSE 02:13:02 12° SE 02:14:31 10° ESE visible
07 Jun 4.1 01:46:33 10° SSE 01:47:37 11° SE 01:48:51 10° ESE visible
